{"data":{"norad_id":39422,"intl_designator":"2013-066G","name":"STSAT-3","alt_names":[],"object_type":"PAYLOAD","status":"ACTIVE","operator":null,"country":"SKOR","launch_date":"2013-11-21","launch_site_code":"DLS","launch_vehicle":null,"mission":null,"orbit_class":"UNKNOWN","rcs_meters":0.4632,"size_class":null,"mass_kg":null,"dimensions":null,"purposes":["science"],"wikipedia_slug":null,"has_3d_model":false,"image_url":null,"decayed_at":null,"tle_current":{"epoch":"2026-05-25T03:20:43.507680Z","epoch_age_seconds":56882,"freshness":"FRESH","line1":"1 39422U 13066G   26145.13939245  .00003355  00000+0  25636-3 0  9990","line2":"2 39422  97.6164 115.4074 0010382 109.3940 250.8408 15.02578217680747","mean_motion":15.02578217,"eccentricity":0.0010382,"inclination_deg":97.6164,"raan_deg":115.4074,"arg_perigee_deg":109.394,"mean_anomaly_deg":250.8408,"bstar":0.00025636,"rev_number":68074,"period_min":95.835277239348,"perigee_km":551.74750905876,"apogee_km":566.15167565913,"semimajor_km":6937.0865923589,"source":"CELESTRAK","updated_at":"2026-05-25T13:38:24.642145Z"}}}